Location: Sungai Igah
(2.7333°N, 114.2500°E)
Time: 19:22:30
(UTC+00:00)

Cosmos 1833 Rocket - Pass Details

Date: 14 June 2021
Orbit: 832 x 840 km, 71.0° (Epoch: 26 July)

Event Time Altitude Azimuth Distance (km) Brightness Sun altitude
Exits shadow 21:12:13 16° 280° (W) 2,056 4.2 -15.2°
Maximum altitude 21:12:44 16° 287° (WNW) 2,045 4.3 -15.1°
Drops below altitude 10° 21:16:04 10° 323° (NW) 2,441 5.0 -14.3°
Sets 21:19:29 0° 345° (NNW) 3,374 6.0 -13.5°
